Hourly Data Report for July 15, 2021

MANIWAKI AIRPORT
QUEBEC
Current Station Operator: ECCC - MSC

46°16'29.000" N
75°59'31.000" W
199.70 m
7034482
71721
WMJ

Download Data

Hourly Data (July 2021)
Hourly Data Report for July 15, 2021
TIME
LST
Temp Definition
°C
Dew Point Definition
°C
Rel Hum Definition
%
Precip. Amount Definition
mm

Wind Dir Definition
10's deg

Wind Spd Definition
km/h
Visibility Definition
km
Stn Press Definition
kPa
Hmdx Definition


Wind Chill Definition


Weather Definition


00:00 17.0 16.6 98 0.0   0   99.38     LegendNANA
01:00 16.7 16.5 99 0.0 5 1   99.36     LegendNANA
02:00 15.8 15.5 98 0.0   0   99.38     LegendNANA
03:00 16.4 16.2 99 0.0   0   99.40     LegendNANA
04:00 16.2 15.8 97 0.0 18 2   99.36     LegendNANA
05:00 15.9 15.7 99 0.0 20 4   99.33     LegendNANA
06:00 17.9 17.4 97 0.0 20 5   99.31     LegendNANA
07:00 20.7 18.2 86 0.0 19 5   99.28 27   LegendNANA
08:00 22.9 18.7 77 0.0 17 10   99.24 29   LegendNANA
09:00 24.6 18.5 69 0.0 19 14   99.19 31   LegendNANA
10:00 27.1 20.1 66 0.0 19 16   99.11 35   LegendNANA
11:00 25.9 18.9 65 0.0 18 16   99.04 33   LegendNANA
12:00 26.4 18.6 62 0.0 21 21   98.98 33   LegendNANA
13:00 26.4 19.6 66 0.0 20 20   98.92 34   LegendNANA
14:00 25.1 18.1 65 0.0 20 19   98.88 31   LegendNANA
15:00 23.6 18.8 75 0.0 19 12   98.78 30   LegendNANA
16:00 23.6 19.8 80 0.0 18 11   98.66 31   LegendNANA
17:00 23.9 19.5 77 0.0 18 14   98.57 31   LegendNANA
18:00 21.1 19.7 92 1.9 17 11   98.55 28   LegendNANA
19:00 20.6 19.6 94 4.2 14 14   98.38 28   LegendNANA
20:00 21.2 20.1 93 2.6 21 19   98.38 29   LegendNANA
21:00 21.6 20.4 93 0.0 21 16   98.40 30   LegendNANA
22:00 21.6 20.3 92 0.0 22 18   98.38 29   LegendNANA
23:00 19.2 17.6 90 0.0 32 12   98.46     LegendNANA

Notes on Data Quality.

Legend

  • E = Estimated
  • M = Missing
  • NA = Not Available*
  • [empty] = Indicates an unobserved value
Date modified: